CZ-4 DEB, 26143

Orbit data source: Space-Track

CZ-4 DEB, 26143 is space debris in SSO originally from a launch on Thu, 14 Oct 1999 UTC launched from the Taiyaun Space Center, China (TSC). Debris objects in space refer to the collection of defunct objects orbiting the Earth. Examples of debris include non-operational satellites, rocket bodies, and fragments generated from explosions, collisions, or faulty payload assembly.

Loading next visibility...
Identifier
26143, 1999-057AF
Orbit
SSO
Country
Flag of CNCN / PRC
Related business
Manufacturer
Unknown
Mission
Spacecraft
Bus & Motor
Unknown
Mass
Unknown
Launch date (UTC)
1999-10-14 (26 years ago)
Launch vehicle
Unknown
Launch site
Taiyaun Space Center, China (TSC)
Object type
Payload
Rocket body
Debris
Shape & HBR
Unknown shape, 0.1 m
Radar Cross Section
Small (<0.1 m²)

Expand to show TLE details & history
Last TLE update: 8 hours ago

TLE from 8 hours ago
0 CZ-4 DEB
1 26143U 99057AF  25288.90168209  .00001381  00000-0  11537-2 0  9998
2 26143  98.9670 268.7933 0477737  25.7147   3.9630 13.47346175254829
Epoch: 2025-10-15T21:38Z
TLE epoch observation values (Epoch: 2025-10-15T21:38:25.332Z)
Latitude
29.72814°
Longitude
-85.62305°
Altitude
730.135 km
Speed
7.669 km/s
True Right ascension
17h 34m 36s
True Declination
29° 34' 47"
Sunlit
Object was in daylight at epoch
Visualization orbit readout
Latitude
Unknown
Longitude
Unknown
Altitude
Unknown
Speed
Unknown
Apparent Right ascension
Unknown
Apparent Declination
Unknown
Sunlit
N/A
Visualization observer readout
Local Sidereal Time
00:02:13
Azimuth
Unknown
Elevation
Unknown
Doppler factor
Unknown
Orbital elements
Apogee altitude
1,435.567 km
Perigee altitude
723.029 km
Semi-major axis
7,457.435 km
Eccentricity
0.04777
Inclination
98.967°
RAAN
268.7933°
Arg. of periapsis
25.7147°
True anomaly
4.36525°
Mean anomaly
3.963°
Eccentric anomaly
4.16164°
Mean motion
3.37023 °/min
Orbital period
106.82 mins
BSTAR
0.0011537
Loading maneuver chart data...
Computing Atmospheric mass density...
Loading historical data...
Loading historical data...
Loading historical data...
Loading historical data...
Loading historical data...
Loading historical data...
Loading historical data...

Documentation

Showing up to 5 results
|